Flag for U.S.A. Weather past 2 weeks in Fresno, California, U.S.A.

Now
70 °F

Partly sunny.


Feels Like: 77 °F
Forecast: 55 / 81 °F
Wind: No wind

Location: Fresno Air Terminal

Current Time: Oct 23, 2014 at 12:04:14 PM

Latest Report: Oct 23, 2014 at 10:53 AM


Visibility: 10 mi

Pressure: 30.07 "Hg

Humidity: 39%

Dew point: 44 °F

Location of FresnoLocation

Historic Weather in Fresno — Graph

°F

Fresno temperature yesterday

Maximum temperature yesterday: 77 °F (at 4:53 PM)
Minimum temperature yesterday: 52 °F (at 6:53 AM)
Average temperature yesterday: 64 °F

Past Weeks' High & Low Weather Summary

 TemperatureHumidityPressure
High94 °F (Oct 8, 4:53 PM)78% (Oct 21, 7:53 AM)30.09 "Hg (Oct 21, 7:53 AM)
Low52 °F (Oct 22, 6:53 AM)10% (Oct 9, 3:53 PM)29.74 "Hg (Oct 14, 4:53 PM)
Average71 °F45%29.93 "Hg
* Reported Oct 8 10:53 AM — Oct 23 10:53 AM, Fresno, Weather by CustomWeather, © 2014

Note: Actual official high and low records may vary slightly from our data, if they occured in-between our weather recording intervals... More about our weather records

Advertising

Fresno weather history for previous 24 hours

 ConditionsComfort  
Time TempWeatherWind HumidityBarometerVisibility
10:53 AM
Oct 23
70 °FPartly sunny.No wind39%30.07 "Hg10 mi
9:53 AM66 °FBroken clouds.No wind49%30.07 "Hg10 mi
8:53 AM62 °FBroken clouds.No wind54%30.06 "Hg9 mi
7:53 AM55 °FPassing clouds.3 mph69%30.04 "Hg10 mi
6:53 AM54 °FPassing clouds.3 mph69%30.03 "Hg10 mi
5:53 AM55 °FPassing clouds.No wind67%30.01 "Hg10 mi
4:53 AM57 °FPassing clouds.5 mph62%30.00 "Hg10 mi
3:53 AM56 °FPassing clouds.No wind62%30.01 "Hg10 mi
2:53 AM57 °FPassing clouds.No wind62%30.02 "Hg10 mi
1:53 AM58 °FPassing clouds.3 mph62%30.03 "Hg10 mi
12:53 AM59 °FPassing clouds.5 mph62%30.04 "Hg10 mi
11:53 PM
Oct 22
61 °FPassing clouds.No wind56%30.03 "Hg10 mi
10:53 PM63 °FClear.3 mph54%30.04 "Hg10 mi
9:53 PM64 °FClear.No wind52%30.04 "Hg10 mi
8:53 PM67 °FClear.No wind45%30.03 "Hg10 mi
7:53 PM71 °FClear.3 mph38%30.02 "Hg10 mi
6:53 PM72 °FScattered clouds.5 mph37%30.01 "Hg10 mi
5:53 PM75 °FBroken clouds.8 mph32%29.99 "Hg10 mi
4:53 PM77 °FBroken clouds.6 mph28%29.99 "Hg10 mi
3:53 PM76 °FBroken clouds.No wind27%30.01 "Hg10 mi
2:53 PM75 °FBroken clouds.No wind28%30.01 "Hg10 mi
1:53 PM73 °FPartly sunny.3 mph30%30.02 "Hg10 mi
12:53 PM72 °FPartly sunny.3 mph37%30.04 "Hg10 mi
Weather by CustomWeather, © 2014

See weather overviewHow to use our weather pages